Preview of NWS' New Version of Forecast
This preview is not operational and should not be used for support decisions.

Regional Weather Roundup (RWR)

Issued by Gray - Portland, ME (GYX)

                            
000
ASUS41 KGYX 231705
RWRGYX
WEATHER ROUNDUP FOR MAINE AND NEW HAMPSHIRE
NATIONAL WEATHER SERVICE GRAY ME
100 PM EDT THU MAY 23 2019

MEZ002-005-006-010-012-015-018-020-021-024-026-027-029-231800-
MAINE
  
CITY           SKY/WX    TMP DP  RH WIND       PRES   REMARKS
PORTLAND       PTSUNNY   62  46  55 S10       30.07F                  
SANFORD        PTSUNNY   67  49  52 VRB7      30.05F                  
BAR HARBOR     FAIR      61  44  53 SW13      30.13F                  
WISCASSET      CLOUDY    58  44  60 VRB7      30.12F                  
ROCKLAND       FAIR      56  47  71 S12       30.12F                  
FRYEBURG       FAIR      68  46  45 N9        30.03F                  
LEWISTONAUBURN PTSUNNY   62  47  57 SE8       30.07S                  
AUGUSTA        CLOUDY    65  44  46 VRB6      30.08F                  
WATERVILLE     FAIR      67  42  40 VRB5      30.04F                  
BANGOR         PTSUNNY   69  42  37 S13G21    30.08F                  
GREENVILLE       N/A     63  36  36 S5        30.03F                  
MILLINOCKET    FAIR      67  38  34 VRB3      30.08F                  
HOULTON        FAIR      64  38  38 NW5       30.08F                  
PRESQUE ISLE   FAIR      63  41  44 VRB5      30.08F                  
FRENCHVILLE    FAIR      63  38  39 SE9       30.06F                  
CARIBOU        FAIR      63  38  39 SE5       30.07F                  
$$

NHZ002-005-008-009-011-012-014-231800-
NEW HAMPSHIRE
  
CITY           SKY/WX    TMP DP  RH WIND       PRES   REMARKS
PORTSMOUTH     CLOUDY    71  50  46 SW10G17   30.03F                  
ROCHESTER      FAIR      71  50  47 CALM      30.03F                  
NASHUA         PTSUNNY   69  54  58 S9G16     30.04F                  
MANCHESTER     PTSUNNY   71  50  47 S16G23    30.01F                  
CONCORD        FAIR      71  50  47 SE10      30.01F                  
LACONIA        FAIR      64  48  56 NE9       30.03F                  
PLYMOUTH       FAIR      68  48  49 CALM      30.02F                  
BERLIN         NOT AVBL                                               
WHITEFIELD     CLOUDY    67  42  40 E3        30.00F                  
JAFFREY        FAIR      68  51  54 S14G20    30.04F                  
KEENE          PTSUNNY   70  54  56 S15       30.02F                  
LEBANON        FAIR      73  49  42 W7        29.98F                  
MT WASHINGTON  FOG       43  43 100 W20         N/A  VSB 1/4          
$$

VTZ005-007-008-231800-
VERMONT
  
CITY           SKY/WX    TMP DP  RH WIND       PRES   REMARKS
ST JOHNSBURY     N/A     66  43  43 MISG      29.97F                  
MONTPELIER     FAIR      68  48  48 E8        30.02F                  
BURLINGTON     CLOUDY    71  49  45 S12       29.94F                  
$$

MAZ007-012-024-CTZ003-RIZ002-NYZ038-NYZ072-231800-
SOUTHERN NEW ENGLAND AND NY
  
CITY           SKY/WX    TMP DP  RH WIND       PRES   REMARKS
BOSTON         PTSUNNY   68  51  54 S20G26    30.09F                  
WORCESTER      CLOUDY    62  49  62 SW17      30.08F                  
NANTUCKET      CLOUDY    56  46  69 S17       30.19F                  
PROVIDENCE     CLOUDY    63  47  55 S13G22    30.14F                  
HARTFORD       PTSUNNY   70  51  51 S16       30.06F                  
ALBANY         PTSUNNY   72  55  55 S16G23    30.00F                  
NEW YORK CITY  PTSUNNY   70  49  47 SW10      30.09F                  
$$

ANZ081-ANZ082-ANZ150-NHZ014-MEZ023>029-231800-
COASTAL MARINE OBSERVATIONS
  
STATION/POSITION TIME  TEMP    WIND        PRES    WAVE
                       AIR SEA DIR/SP/G            HT/PER
                 (UTC) (F)     (DEG/KT/KT) (MB)    (FT/S)
ISLE OF SHOALS   1600   55     160/ 21/ 22 1018.4F
JEFFREYS LEDGE   1608      47                N/A     2/ 4
GEORGES BANK BUO 1650   47 44  200/  6/  6 1025.2F   4/ 9
$$

.............KEY..............
   WCI - WIND CHILL
   TC  - TEMPERATURE IN CELSIUS
   VSB - VISIBILITY IN MILES
   HX  - HEAT INDEX
   FAIR- INDICATES FEW OR NO CLOUDS BELOW 12,000 FT, WITH NO 
         SIGNIFICANT WEATHER AND/OR OBSTRUCTIONS TO VISIBILITY.